When you browse on this site, cookies collect data to enhance your experience and personalize the content and advertising you see.
Visit our Privacy Policy to learn more. By continuing to use the site, you agree to this use of cookies and data.
  • In Deutschland
  • Länderverzeichnis
  • Für 7 Tage
  • Wassertemperatur
  • Wetterkarte
  • Widgets
  • user-avatar
    Anmelden

    Stündliche Wetter Allmersbach

    Heute, 18 September, Mittwoch

    Zeit Temperatur Niederschläge Wind Luftdruck Luftfeuchtigkeit
    00:00 +11°C° 0 mm 1 m/S 734 mmHg 85%
    01:00 +10°C° 0 mm 1 m/S 735 mmHg 87%
    02:00 +10°C° 0 mm 1 m/S 735 mmHg 87%
    03:00 +9°C° 0 mm 1 m/S 735 mmHg 87%
    04:00 +9°C° 0 mm 1 m/S 735 mmHg 87%
    05:00 +9°C° 0 mm 1 m/S 735 mmHg 86%
    06:00 +9°C° 0 mm 1 m/S 735 mmHg 85%
    07:00 +9°C° 0 mm 1 m/S 736 mmHg 84%
    08:00 +9°C° 0 mm 2 m/S 736 mmHg 75%
    09:00 +12°C° 0 mm 2 m/S 736 mmHg 65%
    10:00 +13°C° 0 mm 3 m/S 736 mmHg 55%
    11:00 +14°C° 0 mm 3 m/S 735 mmHg 52%
    12:00 +16°C° 0 mm 3 m/S 735 mmHg 48%
    13:00 +17°C° 0 mm 3 m/S 735 mmHg 45%
    14:00 +17°C° 0 mm 3 m/S 735 mmHg 46%
    15:00 +17°C° 0 mm 3 m/S 735 mmHg 46%
    16:00 +17°C° 0 mm 3 m/S 735 mmHg 47%
    17:00 +14°C° 0 mm 3 m/S 735 mmHg 53%
    18:00 +13°C° 0 mm 2 m/S 735 mmHg 60%
    19:00 +10°C° 0 mm 2 m/S 735 mmHg 66%
    20:00 +10°C° 0 mm 2 m/S 735 mmHg 67%
    21:00 +9°C° 0 mm 2 m/S 736 mmHg 68%
    22:00 +8°C° 0 mm 2 m/S 736 mmHg 70%
    23:00 +8°C° 0 mm 2 m/S 736 mmHg 73%

    Morgen, 19 September, Donnerstag

    Zeit Temperatur Niederschläge Wind Luftdruck Luftfeuchtigkeit
    00:00 +7°C° 0 mm 2 m/S 736 mmHg 75%
    01:00 +7°C° 0 mm 2 m/S 737 mmHg 78%
    02:00 +6°C° 0 mm 2 m/S 736 mmHg 79%
    03:00 +6°C° 0 mm 2 m/S 736 mmHg 79%
    04:00 +6°C° 0 mm 2 m/S 736 mmHg 80%
    05:00 +6°C° 0 mm 2 m/S 737 mmHg 80%
    06:00 +6°C° 0 mm 2 m/S 737 mmHg 80%
    07:00 +6°C° 0 mm 2 m/S 737 mmHg 80%
    08:00 +8°C° 0 mm 2 m/S 737 mmHg 71%
    09:00 +10°C° 0 mm 3 m/S 737 mmHg 62%
    10:00 +12°C° 0 mm 3 m/S 738 mmHg 54%
    11:00 +13°C° 0 mm 3 m/S 738 mmHg 49%
    12:00 +14°C° 0 mm 3 m/S 737 mmHg 45%
    13:00 +16°C° 0 mm 3 m/S 737 mmHg 41%
    14:00 +16°C° 0 mm 3 m/S 737 mmHg 42%
    15:00 +16°C° 0 mm 3 m/S 737 mmHg 43%
    16:00 +16°C° 0 mm 3 m/S 737 mmHg 44%
    17:00 +13°C° 0 mm 3 m/S 737 mmHg 51%
    18:00 +12°C° 0 mm 2 m/S 737 mmHg 58%
    19:00 +9°C° 0 mm 2 m/S 737 mmHg 65%
    20:00 +8°C° 0 mm 2 m/S 737 mmHg 67%
    21:00 +8°C° 0 mm 2 m/S 737 mmHg 68%
    22:00 +7°C° 0 mm 2 m/S 738 mmHg 69%
    23:00 +7°C° 0 mm 2 m/S 737 mmHg 71%

    übermorgen, 20 September, Freitag

    Zeit Temperatur Niederschläge Wind Luftdruck Luftfeuchtigkeit
    00:00 +6°C° 0 mm 2 m/S 737 mmHg 73%
    01:00 +6°C° 0 mm 2 m/S 737 mmHg 76%
    02:00 +5°C° 0 mm 2 m/S 737 mmHg 78%
    03:00 +5°C° 0 mm 2 m/S 737 mmHg 80%
    04:00 +5°C° 0 mm 2 m/S 737 mmHg 82%
    05:00 +5°C° 0 mm 2 m/S 737 mmHg 82%
    06:00 +5°C° 0 mm 2 m/S 737 mmHg 81%
    07:00 +6°C° 0 mm 1 m/S 736 mmHg 81%
    08:00 +8°C° 0 mm 2 m/S 737 mmHg 72%
    09:00 +10°C° 0 mm 3 m/S 737 mmHg 64%
    10:00 +13°C° 0 mm 3 m/S 737 mmHg 55%
    11:00 +14°C° 0 mm 3 m/S 736 mmHg 51%
    12:00 +15°C° 0 mm 4 m/S 736 mmHg 48%
    13:00 +17°C° 0 mm 4 m/S 736 mmHg 44%
    14:00 +17°C° 0 mm 4 m/S 735 mmHg 45%
    15:00 +17°C° 0 mm 4 m/S 735 mmHg 45%
    16:00 +17°C° 0 mm 4 m/S 734 mmHg 46%
    17:00 +16°C° 0 mm 3 m/S 734 mmHg 53%
    18:00 +13°C° 0 mm 3 m/S 734 mmHg 59%
    19:00 +12°C° 0 mm 2 m/S 734 mmHg 66%
    20:00 +10°C° 0 mm 2 m/S 734 mmHg 68%
    21:00 +9°C° 0 mm 2 m/S 734 mmHg 70%
    22:00 +9°C° 0 mm 2 m/S 734 mmHg 72%
    23:00 +8°C° 0 mm 2 m/S 734 mmHg 73%

    21 September, Samstag

    Zeit Temperatur Niederschläge Wind Luftdruck Luftfeuchtigkeit
    00:00 +8°C° 0 mm 2 m/S 733 mmHg 74%
    01:00 +8°C° 0 mm 2 m/S 733 mmHg 75%
    02:00 +7°C° 0 mm 2 m/S 733 mmHg 76%
    03:00 +7°C° 0 mm 2 m/S 733 mmHg 77%
    04:00 +7°C° 0 mm 2 m/S 733 mmHg 78%
    05:00 +7°C° 0 mm 2 m/S 732 mmHg 78%
    06:00 +6°C° 0 mm 2 m/S 732 mmHg 78%
    07:00 +6°C° 0 mm 2 m/S 732 mmHg 78%
    08:00 +9°C° 0 mm 2 m/S 732 mmHg 71%
    09:00 +13°C° 0 mm 2 m/S 732 mmHg 64%
    10:00 +15°C° 0 mm 2 m/S 732 mmHg 58%
    11:00 +18°C° 0 mm 2 m/S 732 mmHg 53%
    12:00 +21°C° 0 mm 1 m/S 731 mmHg 49%
    13:00 +23°C° 0 mm 1 m/S 731 mmHg 45%
    14:00 +23°C° 0 mm 1 m/S 730 mmHg 47%
    15:00 +23°C° 0 mm 2 m/S 730 mmHg 48%
    16:00 +23°C° 0 mm 2 m/S 729 mmHg 50%
    17:00 +20°C° 0 mm 2 m/S 729 mmHg 60%
    18:00 +18°C° 0 mm 2 m/S 729 mmHg 71%
    19:00 +16°C° 0 mm 2 m/S 729 mmHg 82%
    20:00 +15°C° 0 mm 2 m/S 729 mmHg 84%
    21:00 +14°C° 0 mm 2 m/S 729 mmHg 86%
    22:00 +14°C° 0 mm 2 m/S 729 mmHg 88%
    23:00 +14°C° 0 mm 1 m/S 728 mmHg 88%

    22 September, Sonntag

    Zeit Temperatur Niederschläge Wind Luftdruck Luftfeuchtigkeit
    00:00 +13°C° 0 mm 1 m/S 728 mmHg 88%
    01:00 +13°C° 0 mm 1 m/S 728 mmHg 88%
    02:00 +14°C° 0 mm 1 m/S 728 mmHg 86%
    03:00 +14°C° 0 mm 1 m/S 728 mmHg 85%
    04:00 +14°C° 0 mm 1 m/S 728 mmHg 83%
    05:00 +15°C° 0 mm 1 m/S 728 mmHg 82%
    06:00 +15°C° 0 mm 1 m/S 728 mmHg 82%
    07:00 +15°C° 0 mm 1 m/S 728 mmHg 81%
    08:00 +16°C° 0.2 mm 1 m/S 728 mmHg 82%
    09:00 +16°C° 0.2 mm 1 m/S 728 mmHg 84%
    10:00 +18°C° 0.2 mm 1 m/S 728 mmHg 85%
    11:00 +19°C° 0 mm 1 m/S 728 mmHg 82%
    12:00 +20°C° 0 mm 1 m/S 728 mmHg 79%
    13:00 +21°C° 0 mm 1 m/S 727 mmHg 76%
    14:00 +21°C° 0.1 mm 1 m/S 727 mmHg 77%
    15:00 +21°C° 0.1 mm 1 m/S 727 mmHg 77%
    16:00 +21°C° 0.1 mm 1 m/S 726 mmHg 78%
    17:00 +20°C° 0.1 mm 1 m/S 726 mmHg 81%
    18:00 +19°C° 0.1 mm 1 m/S 726 mmHg 84%
    19:00 +19°C° 0.1 mm 1 m/S 726 mmHg 87%
    20:00 +18°C° 0 mm 1 m/S 726 mmHg 88%
    21:00 +18°C° 0 mm 1 m/S 726 mmHg 89%
    22:00 +16°C° 0 mm 1 m/S 726 mmHg 91%
    23:00 +16°C° 0.7 mm 2 m/S 727 mmHg 91%

    23 September, Montag

    Zeit Temperatur Niederschläge Wind Luftdruck Luftfeuchtigkeit
    00:00 +15°C° 0.7 mm 4 m/S 727 mmHg 92%
    01:00 +15°C° 0.7 mm 5 m/S 727 mmHg 93%
    02:00 +14°C° 1.1 mm 5 m/S 728 mmHg 94%
    03:00 +14°C° 1.1 mm 5 m/S 728 mmHg 94%
    04:00 +13°C° 1.1 mm 4 m/S 729 mmHg 95%
    05:00 +13°C° 1 mm 4 m/S 729 mmHg 94%
    06:00 +13°C° 1 mm 3 m/S 730 mmHg 93%
    07:00 +13°C° 1 mm 3 m/S 730 mmHg 93%
    08:00 +14°C° 0.1 mm 3 m/S 730 mmHg 88%
    09:00 +16°C° 0.1 mm 3 m/S 731 mmHg 83%
    10:00 +17°C° 0.1 mm 4 m/S 731 mmHg 78%
    11:00 +18°C° 0.2 mm 4 m/S 731 mmHg 71%
    12:00 +19°C° 0.2 mm 4 m/S 731 mmHg 65%
    13:00 +19°C° 0.2 mm 4 m/S 732 mmHg 58%
    14:00 +19°C° 0 mm 4 m/S 731 mmHg 57%
    15:00 +19°C° 0 mm 4 m/S 731 mmHg 57%
    16:00 +19°C° 0 mm 4 m/S 731 mmHg 56%
    17:00 +18°C° 0 mm 3 m/S 731 mmHg 63%
    18:00 +16°C° 0 mm 2 m/S 731 mmHg 70%
    19:00 +14°C° 0 mm 1 m/S 731 mmHg 77%
    20:00 +14°C° 0 mm 1 m/S 732 mmHg 80%
    21:00 +13°C° 0 mm 1 m/S 732 mmHg 83%
    22:00 +12°C° 0 mm 1 m/S 733 mmHg 86%
    23:00 +12°C° 0 mm 1 m/S 733 mmHg 87%
    Mehr zeigen